User: anonymous   Login
Location: Decatur(IL)
(39.8400°N, 88.9550°W)
Time: 13:49:22
(UTC-05:00)
Language:

Cosmos 2242 Rocket - Orbit

View from above orbital plane
View from above orbital plane
View from above satellite
View from above satellite

Ground track
Ground track

The orbit data is extracted from the following two-line orbital elements,

1 22627U 93024B   14296.56032300  .00000691  00000-0  93047-4 0  4693
2 22627 082.5211 278.5009 0022330 251.7751 247.5711 14.77692765159229
Epoch (UTC): 23 October 2014 13:26:51
Eccentricity: 0.0022330
inclination: 82.5211°
perigee height: 621 km
apogee height: 652 km
right ascension of ascending node: 278.5009°
argument of perigee: 251.7751°
revolutions per day: 14.77692765
mean anomaly at epoch: 247.5711°
orbit number at epoch: 15922

The dashed part of the orbit path shows where the satellite is in the earth's shadow,  

DLR